Starlink 5397

operational
NORAD ID: 54871 Int'l Des: 2022-177 Owner: SPXS Country: US Constellation: starlink
LEOCIRCULAR

Über Starlink 5397

Beschreibung wird geladen...

Live-Position

3D-Globus wird geladen...

Nächste Überflüge

Höhenverlauf

Altitude vs Time

uPlot chart will show altitude changes over time

Zweizeiliger Elementsatz

1 54871U 22177BD 26072.00002314 .00102623 00000-0 64927-2 0 9995
2 54871 43.0006 102.0473 0001247 315.0084 151.1606 15.07914004 5794
Epoch: 13. März 2026 • Age: 5 hours

Aktueller Status

Höhe 553.4 km
Geschwindigkeit 7.59 km/s
Subsatellitenpunkt -37.85°S, 85.27°E
Startdatum 28. Dez. 2022
Alter 3.2 years
Typ internet

Technische Details

Klassifizierung Payload
Masse 305.00 kg
Trockenmasse 290.00 kg
Gesamtmasse 305.00 kg
Länge 0.20 m
Durchmesser 2.80 m
Spannweite 9.00 m
Form Box + pan
Hersteller SPXS
Bus-Typ Starlink
Phasenstatus In Orbit
Besitzer/Staat SPXS/US

Große Konstellationen

Loading constellations...